When you browse on this site, cookies collect data to enhance your experience and personalize the content and advertising you see.
Visit our Privacy Policy to learn more. By continuing to use the site, you agree to this use of cookies and data.

Hourly Weather Tirana

Today, 20 September, Sunday

Time Temperature Precipitation Wind Pressure Humidity
00:00 +23°C° 0 mm 2 mps 754 mmHg 61%
01:00 +23°C° 0 mm 2 mps 754 mmHg 60%
02:00 +23°C° 0 mm 2 mps 754 mmHg 60%
03:00 +21°C° 0 mm 2 mps 754 mmHg 61%
04:00 +21°C° 0 mm 2 mps 754 mmHg 62%
05:00 +23°C° 0 mm 2 mps 754 mmHg 58%
06:00 +24°C° 0 mm 2 mps 754 mmHg 55%
07:00 +25°C° 0 mm 2 mps 754 mmHg 52%
08:00 +27°C° 0 mm 2 mps 754 mmHg 46%
09:00 +29°C° 0 mm 2 mps 754 mmHg 41%
10:00 +31°C° 0 mm 2 mps 754 mmHg 35%
11:00 +33°C° 0 mm 3 mps 753 mmHg 35%
12:00 +33°C° 0 mm 4 mps 753 mmHg 35%
13:00 +34°C° 0 mm 5 mps 752 mmHg 34%
14:00 +32°C° 0 mm 5 mps 752 mmHg 38%
15:00 +30°C° 0 mm 5 mps 752 mmHg 41%
16:00 +29°C° 0 mm 4 mps 752 mmHg 45%
17:00 +27°C° 0 mm 3 mps 752 mmHg 52%
18:00 +26°C° 0 mm 2 mps 753 mmHg 60%
19:00 +24°C° 0 mm 1 mps 753 mmHg 67%
20:00 +23°C° 0 mm 1 mps 753 mmHg 68%
21:00 +23°C° 0 mm 1 mps 753 mmHg 69%
22:00 +22°C° 0 mm 1 mps 754 mmHg 70%
23:00 +22°C° 0 mm 1 mps 754 mmHg 71%

Tomorrow, 21 September, Monday

Time Temperature Precipitation Wind Pressure Humidity
00:00 +22°C° 0 mm 1 mps 754 mmHg 71%
01:00 +22°C° 0 mm 1 mps 754 mmHg 72%
02:00 +22°C° 0 mm 1 mps 754 mmHg 72%
03:00 +21°C° 0 mm 1 mps 754 mmHg 71%
04:00 +20°C° 0 mm 2 mps 754 mmHg 71%
05:00 +21°C° 0 mm 2 mps 754 mmHg 65%
06:00 +23°C° 0 mm 2 mps 754 mmHg 59%
07:00 +25°C° 0 mm 2 mps 754 mmHg 52%
08:00 +27°C° 0 mm 2 mps 754 mmHg 47%
09:00 +29°C° 0 mm 2 mps 754 mmHg 42%
10:00 +31°C° 0 mm 2 mps 754 mmHg 37%
11:00 +31°C° 0 mm 3 mps 754 mmHg 38%
12:00 +31°C° 0 mm 3 mps 753 mmHg 39%
13:00 +33°C° 0 mm 4 mps 753 mmHg 39%
14:00 +32°C° 0 mm 4 mps 753 mmHg 42%
15:00 +30°C° 0 mm 3 mps 753 mmHg 45%
16:00 +29°C° 0 mm 2 mps 753 mmHg 48%
17:00 +27°C° 0 mm 2 mps 753 mmHg 58%
18:00 +25°C° 0 mm 3 mps 753 mmHg 67%
19:00 +22°C° 0 mm 3 mps 754 mmHg 77%
20:00 +22°C° 0.1 mm 3 mps 754 mmHg 78%
21:00 +21°C° 0.1 mm 3 mps 754 mmHg 80%
22:00 +21°C° 0.1 mm 3 mps 754 mmHg 81%
23:00 +21°C° 0.1 mm 3 mps 754 mmHg 79%

Day after tomorrow, 22 September, Tuesday

Time Temperature Precipitation Wind Pressure Humidity
00:00 +21°C° 0.1 mm 3 mps 754 mmHg 77%
01:00 +21°C° 0.1 mm 3 mps 754 mmHg 76%
02:00 +21°C° 0.2 mm 3 mps 754 mmHg 75%
03:00 +20°C° 0.2 mm 3 mps 754 mmHg 75%
04:00 +20°C° 0.2 mm 2 mps 754 mmHg 74%
05:00 +21°C° 0.1 mm 2 mps 754 mmHg 69%
06:00 +23°C° 0.1 mm 2 mps 754 mmHg 63%
07:00 +24°C° 0.1 mm 3 mps 754 mmHg 57%
08:00 +27°C° 0 mm 3 mps 754 mmHg 51%
09:00 +29°C° 0 mm 3 mps 754 mmHg 44%
10:00 +31°C° 0 mm 3 mps 754 mmHg 37%
11:00 +32°C° 0.1 mm 4 mps 754 mmHg 38%
12:00 +32°C° 0.1 mm 5 mps 753 mmHg 39%
13:00 +33°C° 0.1 mm 7 mps 753 mmHg 39%
14:00 +32°C° 0.1 mm 7 mps 753 mmHg 40%
15:00 +30°C° 0.1 mm 7 mps 753 mmHg 41%
16:00 +29°C° 0.1 mm 7 mps 752 mmHg 43%
17:00 +28°C° 0.1 mm 6 mps 753 mmHg 48%
18:00 +26°C° 0.1 mm 5 mps 753 mmHg 54%
19:00 +23°C° 0.1 mm 5 mps 753 mmHg 60%
20:00 +23°C° 0.1 mm 4 mps 753 mmHg 59%
21:00 +22°C° 0.1 mm 3 mps 753 mmHg 58%
22:00 +22°C° 0.1 mm 3 mps 753 mmHg 57%
23:00 +22°C° 0.1 mm 3 mps 753 mmHg 57%

23 September, Wednesday

Time Temperature Precipitation Wind Pressure Humidity
00:00 +22°C° 0.1 mm 3 mps 753 mmHg 57%
01:00 +21°C° 0.1 mm 2 mps 753 mmHg 57%
02:00 +21°C° 0 mm 3 mps 753 mmHg 57%
03:00 +21°C° 0 mm 3 mps 753 mmHg 58%
04:00 +21°C° 0 mm 3 mps 753 mmHg 58%
05:00 +22°C° 0 mm 3 mps 753 mmHg 55%
06:00 +24°C° 0 mm 3 mps 753 mmHg 51%
07:00 +25°C° 0 mm 3 mps 753 mmHg 48%
08:00 +27°C° 0 mm 3 mps 752 mmHg 44%
09:00 +29°C° 0 mm 3 mps 752 mmHg 40%
10:00 +31°C° 0 mm 3 mps 752 mmHg 36%
11:00 +32°C° 0.2 mm 5 mps 752 mmHg 37%
12:00 +32°C° 0.2 mm 7 mps 751 mmHg 38%
13:00 +32°C° 0.2 mm 9 mps 751 mmHg 40%
14:00 +32°C° 0.2 mm 9 mps 751 mmHg 43%
15:00 +31°C° 0.2 mm 9 mps 751 mmHg 45%
16:00 +29°C° 0.2 mm 8 mps 751 mmHg 48%
17:00 +27°C° 0.6 mm 8 mps 751 mmHg 57%
18:00 +26°C° 0.6 mm 7 mps 751 mmHg 66%
19:00 +23°C° 0.6 mm 6 mps 751 mmHg 75%
20:00 +22°C° 0.6 mm 6 mps 751 mmHg 76%
21:00 +22°C° 0.6 mm 5 mps 752 mmHg 76%
22:00 +22°C° 0.6 mm 5 mps 752 mmHg 77%
23:00 +22°C° 0.7 mm 4 mps 752 mmHg 77%

24 September, Thursday

Time Temperature Precipitation Wind Pressure Humidity
00:00 +22°C° 0.7 mm 3 mps 752 mmHg 77%
01:00 +21°C° 0.7 mm 3 mps 752 mmHg 77%
02:00 +21°C° 0.3 mm 3 mps 752 mmHg 76%
03:00 +21°C° 0.3 mm 3 mps 752 mmHg 76%
04:00 +21°C° 0.3 mm 3 mps 752 mmHg 76%
05:00 +22°C° 0.2 mm 3 mps 752 mmHg 73%
06:00 +22°C° 0.2 mm 3 mps 752 mmHg 70%
07:00 +24°C° 0.2 mm 3 mps 752 mmHg 68%
08:00 +26°C° 0.2 mm 3 mps 752 mmHg 61%
09:00 +27°C° 0.2 mm 3 mps 753 mmHg 55%
10:00 +29°C° 0.2 mm 4 mps 753 mmHg 48%
11:00 +29°C° 0.1 mm 4 mps 752 mmHg 47%
12:00 +30°C° 0.1 mm 4 mps 752 mmHg 47%
13:00 +30°C° 0.1 mm 4 mps 752 mmHg 46%
14:00 +29°C° 0.1 mm 3 mps 752 mmHg 47%
15:00 +29°C° 0.1 mm 3 mps 752 mmHg 49%
16:00 +28°C° 0.1 mm 2 mps 752 mmHg 50%
17:00 +26°C° 0 mm 2 mps 752 mmHg 57%
18:00 +25°C° 0 mm 2 mps 753 mmHg 63%
19:00 +23°C° 0 mm 1 mps 753 mmHg 70%
20:00 +23°C° 0 mm 1 mps 753 mmHg 71%
21:00 +22°C° 0 mm 1 mps 753 mmHg 71%
22:00 +22°C° 0 mm 1 mps 753 mmHg 71%
23:00 +21°C° 0 mm 2 mps 753 mmHg 70%

25 September, Friday

Time Temperature Precipitation Wind Pressure Humidity
00:00 +21°C° 0 mm 2 mps 753 mmHg 68%
01:00 +21°C° 0 mm 3 mps 753 mmHg 67%
02:00 +20°C° 0 mm 3 mps 752 mmHg 66%
03:00 +20°C° 0 mm 3 mps 752 mmHg 65%
04:00 +20°C° 0 mm 3 mps 752 mmHg 63%
05:00 +21°C° 0 mm 3 mps 752 mmHg 59%
06:00 +22°C° 0 mm 3 mps 752 mmHg 55%
07:00 +24°C° 0 mm 3 mps 752 mmHg 51%
08:00 +26°C° 0 mm 4 mps 751 mmHg 45%
09:00 +29°C° 0 mm 5 mps 751 mmHg 39%
10:00 +32°C° 0 mm 6 mps 751 mmHg 33%
11:00 +30°C° 0 mm 7 mps 750 mmHg 35%
12:00 +31°C° 0 mm 8 mps 750 mmHg 38%
13:00 +31°C° 0 mm 9 mps 749 mmHg 40%
14:00 +29°C° 0.1 mm 9 mps 749 mmHg 43%
15:00 +28°C° 0.1 mm 8 mps 748 mmHg 46%
16:00 +27°C° 0.1 mm 8 mps 748 mmHg 49%
17:00 +26°C° 0.5 mm 8 mps 748 mmHg 55%
18:00 +24°C° 0.5 mm 8 mps 748 mmHg 62%
19:00 +23°C° 0.5 mm 7 mps 748 mmHg 68%
20:00 +22°C° 1.6 mm 7 mps 748 mmHg 72%
21:00 +22°C° 1.6 mm 7 mps 747 mmHg 77%
22:00 +21°C° 1.6 mm 6 mps 747 mmHg 81%
23:00 +21°C° 1.4 mm 6 mps 747 mmHg 82%
Show more